Location: ?????????
(41.2393°N, 22.9479°E)
Time: 22:29:00
(UTC+00:00)

Cosmos 1190 Rocket - Pass Details

Date: 17 November 2025
Orbit: 752 x 775 km, 74.1° (Epoch: 09 December)

Event Time Altitude Azimuth Distance (km) Brightness Sun altitude
Rises 16:49:34 0° 205° (SSW) 3,236 7.7 -19.2°
Reaches altitude 10° 16:51:57 10° 208° (SSW) 2,314 7.0 -19.6°
Maximum altitude 16:57:11 68° 291° (WNW) 835 4.3 -20.6°
Enters shadow 17:02:11 12° 14° (NNE) 2,219 6.2 -21.5°
